THY21Y LTFM-FAOR

Flight info

Callsign THY21Y
Flight time N/A
Altitude 27000
Route RATVU T35 NUMTI/N0498F360 DCT KULAR/N0497F370 UT39 TOMBI DCT PEDER M855 MAROS DCT USEBE M855 RASDA A16 CVO A727 NABED T55 DEDLI/N0489F390 M999 JDW G650 RASKA/N0492F380 G650 KONET UM308 AVUNI/N0484F400 UM308 RUDOL/N0488F390 UM308 LOTAS/N0486F400 UM441 LOSIN UM315 DVL UG656 GESAS UM307 EPSEK UZ33 NESAG UZ7 OKPIT OKPIT1C
Aircraft A359/H-SDE2E3GHIJ3J4J5LM1ORWXY/LB1D1

Departure

Time 2026-02-21 22:55
Airport İstanbul Airport (LTFM)

Arrival

Time N/A
Airport O.R. Tambo International Airport (FAOR)
Time Latitude Longitude Altitude Speed Heading
2026-02-21 21:57 41.26680 28.74367 336 ft 0 kts 272°
2026-02-21 22:30 41.26680 28.74369 340 ft 1 kts 272°
2026-02-21 22:31 41.26680 28.74392 336 ft 3 kts 268°
2026-02-21 22:31 41.26680 28.74419 338 ft 3 kts 267°
2026-02-21 22:31 41.26681 28.74439 337 ft 2 kts 271°
2026-02-21 22:31 41.26678 28.74461 337 ft 3 kts 313°
2026-02-21 22:32 41.26664 28.74471 335 ft 3 kts 360°
2026-02-21 22:32 41.26647 28.74471 336 ft 1 kts 360°
2026-02-21 22:32 41.26645 28.74471 336 ft 0 kts 359°
2026-02-21 22:44 41.26677 28.74470 335 ft 9 kts 359°
2026-02-21 22:44 41.26736 28.74469 336 ft 8 kts 359°
2026-02-21 22:45 41.26793 28.74468 335 ft 9 kts 359°
2026-02-21 22:45 41.26854 28.74467 338 ft 9 kts 359°
2026-02-21 22:45 41.26920 28.74465 336 ft 10 kts 359°
2026-02-21 22:45 41.26989 28.74462 335 ft 10 kts 358°
2026-02-21 22:46 41.27049 28.74432 338 ft 9 kts 304°
2026-02-21 22:46 41.27058 28.74347 335 ft 10 kts 269°
2026-02-21 22:46 41.27057 28.74248 337 ft 11 kts 269°
2026-02-21 22:46 41.27056 28.74135 337 ft 13 kts 269°
2026-02-21 22:47 41.27054 28.74011 337 ft 14 kts 269°
2026-02-21 22:47 41.27052 28.73875 338 ft 15 kts 269°
2026-02-21 22:47 41.27050 28.73728 336 ft 16 kts 269°
2026-02-21 22:47 41.27048 28.73571 337 ft 18 kts 269°
2026-02-21 22:48 41.27046 28.73404 336 ft 19 kts 269°
2026-02-21 22:48 41.27044 28.73229 340 ft 19 kts 268°
2026-02-21 22:48 41.27041 28.73066 337 ft 15 kts 267°
2026-02-21 22:48 41.26981 28.72991 336 ft 13 kts 186°
2026-02-21 22:49 41.26885 28.72988 335 ft 14 kts 180°
2026-02-21 22:49 41.26788 28.72990 337 ft 12 kts 179°
2026-02-21 22:49 41.26702 28.72993 337 ft 13 kts 179°
2026-02-21 22:49 41.26604 28.72995 335 ft 15 kts 179°
2026-02-21 22:50 41.26498 28.72998 337 ft 16 kts 179°
2026-02-21 22:50 41.26380 28.73000 337 ft 17 kts 179°
2026-02-21 22:50 41.26269 28.73001 336 ft 11 kts 183°
2026-02-21 22:50 41.26222 28.72937 335 ft 11 kts 250°
2026-02-21 22:51 41.26211 28.72752 340 ft 9 kts 269°
2026-02-21 22:51 41.26210 28.72664 336 ft 10 kts 269°
2026-02-21 22:51 41.26215 28.72565 336 ft 11 kts 292°
2026-02-21 22:52 41.26277 28.72526 337 ft 10 kts 353°
2026-02-21 22:52 41.26293 28.72525 336 ft 0 kts 358°
2026-02-21 22:54 41.26322 28.72524 336 ft 19 kts 358°
2026-02-21 22:54 41.26666 28.72516 336 ft 80 kts 359°
2026-02-21 22:54 41.27406 28.72500 335 ft 131 kts 359°
2026-02-21 22:54 41.28459 28.72475 499 ft 161 kts 359°
2026-02-21 22:55 41.29552 28.72426 1199 ft 155 kts 359°
2026-02-21 22:55 41.30649 28.72377 1836 ft 161 kts
2026-02-21 22:55 41.31768 28.72364 2392 ft 162 kts
2026-02-21 22:55 41.32539 28.72383 2618 ft 172 kts
2026-02-21 22:56 41.33800 28.72439 2905 ft 189 kts
2026-02-21 22:56 41.35168 28.72480 3216 ft 206 kts
2026-02-21 22:56 41.36650 28.72149 3520 ft 229 kts 341°
2026-02-21 22:56 41.37908 28.70713 3906 ft 254 kts 306°
2026-02-21 22:57 41.38390 28.68387 4335 ft 271 kts 275°
2026-02-21 22:57 41.38351 28.65821 4842 ft 280 kts 268°
2026-02-21 22:57 41.38248 28.63232 5480 ft 282 kts 268°
2026-02-21 22:57 41.38137 28.60585 5997 ft 288 kts 265°
2026-02-21 22:58 41.37704 28.57988 6630 ft 290 kts 248°
2026-02-21 22:58 41.36695 28.55654 7136 ft 293 kts 232°
2026-02-21 22:58 41.35307 28.53731 7945 ft 283 kts 216°
2026-02-21 22:58 41.33557 28.52612 8594 ft 280 kts 189°
2026-02-21 22:59 41.31660 28.52734 9185 ft 279 kts 163°
2026-02-21 22:59 41.29824 28.53601 9812 ft 281 kts 158°
2026-02-21 22:59 41.28007 28.54597 10357 ft 286 kts 158°
2026-02-21 22:59 41.26131 28.55633 10641 ft 299 kts 158°
2026-02-21 23:00 41.24158 28.56713 10896 ft 313 kts 158°
2026-02-21 23:00 41.22101 28.57828 11193 ft 326 kts 158°
2026-02-21 23:00 41.19956 28.58985 11401 ft 339 kts 158°
2026-02-21 23:00 41.17728 28.60188 11619 ft 351 kts 158°
2026-02-21 23:01 41.15426 28.61429 11826 ft 363 kts 158°
2026-02-21 23:01 41.13060 28.62699 12201 ft 368 kts 158°
2026-02-21 23:01 41.10690 28.63970 12754 ft 368 kts 158°
2026-02-21 23:01 41.08300 28.65254 13118 ft 373 kts 158°
2026-02-21 23:02 41.05873 28.66555 13525 ft 377 kts 159°
2026-02-21 23:02 41.03439 28.67856 14070 ft 376 kts 159°
2026-02-21 23:02 41.01024 28.69147 14624 ft 374 kts 159°
2026-02-21 23:02 40.98596 28.70446 15012 ft 378 kts 159°
2026-02-21 23:03 40.96146 28.71754 15395 ft 382 kts 159°
2026-02-21 23:03 40.93673 28.73074 15786 ft 384 kts 159°
2026-02-21 23:03 40.91187 28.74399 16198 ft 387 kts 159°
2026-02-21 23:03 40.88687 28.75731 16595 ft 389 kts 159°
2026-02-21 23:04 40.86163 28.77075 17000 ft 392 kts 159°
2026-02-21 23:04 40.83629 28.78421 17447 ft 392 kts 158°
2026-02-21 23:04 40.81094 28.79768 17899 ft 394 kts 158°
2026-02-21 23:04 40.78571 28.81109 18240 ft 398 kts 158°
2026-02-21 23:05 40.75996 28.82476 18551 ft 401 kts 158°
2026-02-21 23:05 40.73402 28.83851 18917 ft 402 kts 158°
2026-02-21 23:05 40.70795 28.85232 19283 ft 404 kts 158°
2026-02-21 23:05 40.68171 28.86621 19522 ft 409 kts 158°
2026-02-21 23:06 40.65526 28.88020 19837 ft 411 kts 158°
2026-02-21 23:06 40.62883 28.89415 20365 ft 408 kts 158°
2026-02-21 23:06 40.60247 28.90807 20699 ft 410 kts 158°
2026-02-21 23:06 40.57590 28.92209 21013 ft 412 kts 158°
2026-02-21 23:07 40.54965 28.93774 21292 ft 416 kts 151°
2026-02-21 23:07 40.52482 28.95746 21622 ft 418 kts 147°
2026-02-21 23:07 40.50039 28.97832 21996 ft 419 kts 147°
2026-02-21 23:07 40.47595 28.99932 22365 ft 421 kts 147°
2026-02-21 23:08 40.45133 29.02042 22724 ft 423 kts 147°
2026-02-21 23:08 40.42668 29.04149 23084 ft 424 kts 147°
2026-02-21 23:08 40.40187 29.06265 23434 ft 426 kts 147°
2026-02-21 23:08 40.37728 29.08357 23767 ft 428 kts 147°
2026-02-21 23:09 40.35228 29.10482 24069 ft 429 kts 147°
2026-02-21 23:09 40.32718 29.12614 24347 ft 431 kts 147°
2026-02-21 23:09 40.30194 29.14755 24626 ft 433 kts 147°
2026-02-21 23:09 40.27659 29.16904 24932 ft 435 kts 147°
2026-02-21 23:10 40.25115 29.19058 25226 ft 437 kts 147°
2026-02-21 23:10 40.22593 29.21191 25523 ft 439 kts 147°
2026-02-21 23:10 40.20016 29.23340 25832 ft 440 kts 149°
2026-02-21 23:10 40.17282 29.25157 26115 ft 442 kts 157°
2026-02-21 23:11 40.14408 29.26608 26432 ft 444 kts 159°
2026-02-21 23:11 40.11503 29.27983 26843 ft 443 kts 160°
2026-02-21 23:11 40.08599 29.29349 27205 ft 444 kts 159°
2026-02-21 23:11 40.05686 29.30724 27527 ft 446 kts 159°
2026-02-21 23:12 40.02762 29.32107 27854 ft 448 kts 159°
2026-02-21 23:12 39.99824 29.33498 28186 ft 450 kts 159°
2026-02-21 23:12 39.96871 29.34895 28499 ft 451 kts 159°
2026-02-21 23:12 39.93910 29.36296 28837 ft 453 kts 159°
2026-02-21 23:13 39.90942 29.37700 29112 ft 455 kts 159°
2026-02-21 23:13 39.87966 29.39161 29306 ft 459 kts 158°
2026-02-21 23:13 39.85012 29.40756 29583 ft 461 kts 156°
2026-02-21 23:13 39.82064 29.42415 29875 ft 462 kts 156°
2026-02-21 23:14 39.79144 29.44075 30126 ft 464 kts 156°
2026-02-21 23:14 39.76181 29.45749 30371 ft 465 kts 156°
2026-02-21 23:14 39.73162 29.47286 30620 ft 466 kts 162°
2026-02-21 23:14 39.70031 29.48338 30870 ft 466 kts 169°
2026-02-21 23:15 39.66801 29.48809 31109 ft 467 kts 179°
2026-02-21 23:15 39.63558 29.48637 31295 ft 468 kts 187°
2026-02-21 23:15 39.60375 29.47802 31579 ft 467 kts 197°
2026-02-21 23:15 39.57339 29.46335 31918 ft 464 kts 205°
2026-02-21 23:16 39.54508 29.44317 32269 ft 462 kts 212°
2026-02-21 23:16 39.51802 29.42097 32617 ft 459 kts 213°
2026-02-21 23:16 39.49184 29.39846 32999 ft 455 kts 215°
2026-02-21 23:16 39.46571 29.37562 33432 ft 451 kts 215°
2026-02-21 23:17 39.43971 29.35291 33742 ft 450 kts 215°
2026-02-21 23:17 39.41372 29.33036 33964 ft 450 kts 215°
2026-02-21 23:17 39.38767 29.30795 34148 ft 450 kts 215°
2026-02-21 23:17 39.36162 29.28570 34350 ft 449 kts 215°
2026-02-21 23:18 39.33550 29.26352 34533 ft 448 kts 215°
2026-02-21 23:18 39.30950 29.24149 34787 ft 447 kts 215°
2026-02-21 23:18 39.25725 29.19728 34986 ft 450 kts 215°
2026-02-21 23:19 39.23105 29.17514 35187 ft 449 kts 216°
2026-02-21 23:19 39.20496 29.15309 35377 ft 448 kts 216°
2026-02-21 23:19 39.17896 29.13112 35554 ft 447 kts 216°
2026-02-21 23:19 39.15306 29.10925 35807 ft 444 kts 216°
2026-02-21 23:20 39.12721 29.08749 36046 ft 443 kts 216°
2026-02-21 23:20 39.10146 29.06583 36211 ft 442 kts 216°
2026-02-21 23:20 39.07572 29.04420 36362 ft 442 kts 216°
2026-02-21 23:20 39.05000 29.02260 36512 ft 441 kts 216°
2026-02-21 23:21 39.02433 29.00105 36696 ft 440 kts 216°
2026-02-21 23:21 38.99869 28.97954 36857 ft 440 kts 217°
2026-02-21 23:21 38.97302 28.95803 36964 ft 441 kts 217°
2026-02-21 23:21 38.94756 28.93669 36985 ft 445 kts 216°
2026-02-21 23:22 38.89534 28.89299 36980 ft 450 kts 216°
2026-02-21 23:22 38.84279 28.84913 36963 ft 449 kts 216°
2026-02-21 23:23 38.79046 28.80559 36974 ft 447 kts 216°
2026-02-21 23:23 38.73839 28.76227 36975 ft 446 kts 216°
2026-02-21 23:24 38.68616 28.71906 36960 ft 447 kts 215°
2026-02-21 23:24 38.62925 28.68599 36979 ft 454 kts 201°
2026-02-21 23:25 38.56588 28.67513 36985 ft 469 kts 184°
2026-02-21 23:25 38.50084 28.69140 36985 ft 488 kts 166°
2026-02-21 23:26 38.47034 28.70994 36979 ft 499 kts 157°
2026-02-21 23:26 38.44161 28.73579 36986 ft 511 kts 146°
2026-02-21 23:26 38.38987 28.79917 36989 ft 512 kts 147°
2026-02-21 23:27 38.33182 28.84916 36992 ft 498 kts 159°
2026-02-21 23:27 38.26988 28.88786 36996 ft 494 kts 163°
2026-02-21 23:28 38.20715 28.92350 36987 ft 494 kts 164°
2026-02-21 23:28 38.14421 28.95894 36965 ft 495 kts 164°
2026-02-21 23:29 38.08136 28.99471 37001 ft 495 kts 164°
2026-02-21 23:29 38.01856 29.03061 36998 ft 495 kts 164°
2026-02-21 23:30 37.95578 29.06652 36997 ft 496 kts 165°
2026-02-21 23:30 37.89319 29.10221 37003 ft 496 kts 165°
2026-02-21 23:31 37.83024 29.13803 37004 ft 496 kts 165°
2026-02-21 23:31 37.76727 29.17379 37010 ft 496 kts 165°
2026-02-21 23:32 37.70427 29.20949 36999 ft 497 kts 166°
2026-02-21 23:32 37.64112 29.24520 37009 ft 497 kts 166°
2026-02-21 23:33 37.57802 29.28086 37025 ft 497 kts 166°
2026-02-21 23:33 37.51494 29.31643 37019 ft 496 kts 166°
2026-02-21 23:34 37.45190 29.35191 37023 ft 497 kts 166°
2026-02-21 23:34 37.38880 29.38734 37017 ft 496 kts 166°
2026-02-21 23:35 37.32560 29.42276 37020 ft 496 kts 166°
2026-02-21 23:35 37.26288 29.45785 37019 ft 496 kts 166°
2026-02-21 23:36 37.19974 29.49311 37019 ft 496 kts 166°
2026-02-21 23:36 37.13664 29.52830 37021 ft 496 kts 166°
2026-02-21 23:37 37.07356 29.56341 37023 ft 496 kts 167°
2026-02-21 23:37 37.01046 29.59844 37020 ft 495 kts 167°
2026-02-21 23:38 36.94788 29.63315 37019 ft 494 kts 167°
2026-02-21 23:38 36.88501 29.66795 37023 ft 494 kts 167°
2026-02-21 23:39 36.82211 29.70270 37024 ft 494 kts 167°
2026-02-21 23:39 36.75926 29.73737 37010 ft 493 kts 167°
2026-02-21 23:40 36.69643 29.77186 37022 ft 494 kts 167°
2026-02-21 23:40 36.63356 29.80640 37023 ft 494 kts 167°
2026-02-21 23:41 36.57063 29.84096 37007 ft 493 kts 167°
2026-02-21 23:41 36.50830 29.87512 37014 ft 491 kts 168°
2026-02-21 23:42 36.38310 29.94343 37006 ft 490 kts 168°
2026-02-21 23:43 36.32067 29.97747 37007 ft 490 kts 168°
2026-02-21 23:43 36.25864 30.01120 37002 ft 490 kts 168°
2026-02-21 23:44 36.19617 30.04511 36999 ft 489 kts 169°
2026-02-21 23:44 36.14393 30.07343 36996 ft 489 kts 169°
2026-02-21 23:45 36.08166 30.10711 36998 ft 489 kts 169°
2026-02-21 23:45 36.01928 30.14082 36998 ft 489 kts 169°
2026-02-21 23:46 35.95730 30.17422 36993 ft 489 kts 169°
2026-02-21 23:46 35.89483 30.20780 36997 ft 490 kts 169°
2026-02-21 23:47 35.83232 30.24139 37004 ft 490 kts 169°
2026-02-21 23:47 35.76976 30.27495 37005 ft 490 kts 169°
2026-02-21 23:48 35.70721 30.30845 37004 ft 491 kts 170°